Regional Weather Roundup
Issued by NWS

Home | Current Version | Previous Version | Graphics & Text | Print | Product List | Glossary On
Versions: 1 2 3 4 5 6 7 8 9 10 11 12 13 14 15 16 17 18 19 20 21 22 23 24 25 26 27 28 29 30 31 32 33 34 35 36 37 38 39 40 41 42 43 44 45 46 47 48 49 50
000
ASUS43 KOAX 272310
RWRNE

WEATHER ROUNDUP FOR NEBRASKA
NATIONAL WEATHER SERVICE OMAHA NE
600 PM CDT THU AUG 27 2015

NOTES: SATELLITE DATA IS BEING USED TO AUGMENT CLOUD COVER ABOVE
       12000 FEET.
       "FAIR" INDICATES FEW OR NO CLOUDS BELOW 12,000 FEET WITH NO
       SIGNIFICANT WEATHER AND/OR OBSTRUCTIONS TO VISIBILITY.

  * THESE STATIONS DO NOT REPORT WEATHER SUCH AS RAIN...SNOW OR FOG.

NEZ001>004-019>022-054>056-280000-
NEBRASKA PANHANDLE

CITY           SKY/WX    TMP DP  RH WIND       PRES   REMARKS
SCOTTSBLUFF    CLOUDY    84  56  38 NE13      30.03F
ALLIANCE       CLOUDY    75  57  53 N17       30.04R
CHADRON        PTSUNNY   80  55  42 NE13      30.01F
KIMBALL        CLOUDY    78  54  42 N17G23    30.08S
SIDNEY         PTSUNNY   81  56  42 N23G30    30.04R
$$

NEZ057>060-069>072-079>082-280000-
SOUTHWEST NEBRASKA

CITY           SKY/WX    TMP DP  RH WIND       PRES   REMARKS
NORTH PLATTE   PTSUNNY   87  66  49 N8        29.84F
IMPERIAL       SUNNY     88  56  33 NE6       29.88F
LEXINGTON      MOSUNNY   90  71  54 SE10      29.78F HX  96
MCCOOK         MOSUNNY   93  58  30 W10       29.81F HX  92
OGALLALA       MOSUNNY   85  64  48 N20       29.91S
$$

NEZ005>010-023>029-035>040-094-280000-
NORTH CENTRAL NEBRASKA

CITY           SKY/WX    TMP DP  RH WIND       PRES   REMARKS
AINSWORTH      CLOUDY    77  68  74 N5        29.91F
BROKEN BOW     MOSUNNY   82  70  66 NE6       29.85F THUNDER
O`NEILL        CLOUDY    79  70  74 SE6       29.89F
ORD            CLOUDY    80  70  71 E9        29.84F
THEDFORD       PTSUNNY   81  68  63 N14       29.91F
$$

NEZ041-046>049-061>064-073>077-083>087-280000-
SOUTH CENTRAL NEBRASKA

CITY           SKY/WX    TMP DP  RH WIND       PRES   REMARKS
GRAND ISLAND   CLOUDY    83  69  62 SE17G25   29.84F
AURORA           N/A     81  68  65 SE18      29.85F
HASTINGS       PTSUNNY   85  68  56 SE20G25   29.83F
HEBRON         CLOUDY    82  62  49 S8        29.91R THUNDER
HOLDREGE       MOSUNNY   88  68  51 SE22      29.79F HX  91
KEARNEY *      MOSUNNY   86  70  58 SE18G33   29.80F HX  90
YORK           CLOUDY    79  70  73 S12       29.88S
$$

NEZ011>018-030>034-042>045-280000-
NORTHEAST NEBRASKA

CITY           SKY/WX    TMP DP  RH WIND       PRES   REMARKS
NORFOLK        PTSUNNY   81  70  69 SE14      29.87F
ALBION         LGT RAIN  80  69  69 SE13      29.85F
BLAIR          CLOUDY    78  65  62 SE13G20   29.91F
COLUMBUS *     CLOUDY   N/A N/A N/A SE8       29.87F
FREMONT        CLOUDY    80  67  65 SE12G20   29.90F
TEKAMAH        CLOUDY    79  68  69 S14G21    29.89F
WAYNE          CLOUDY    77  69  75 SE9       29.90S
$$

NEZ050>053-065>068-078-088>093-280000-
SOUTHEAST NEBRASKA

CITY           SKY/WX    TMP DP  RH WIND       PRES   REMARKS
LINCOLN        CLOUDY    82  67  60 S16       29.90F
OMAHA EPPLEY   CLOUDY    81  67  62 S18       29.91F
BEATRICE       CLOUDY    80  66  63 SE13      29.90R
FALLS CITY     CLOUDY    80  67  64 SE9       29.93F
NEBRASKA CITY  CLOUDY    78  62  57 S15G22    29.94S
PLATTSMOUTH    CLOUDY    77  65  66 S9        29.92F
$$

NEZ044-045-051>053-067-280000-
OMAHA AREA

CITY           SKY/WX    TMP DP  RH WIND       PRES   REMARKS
OMAHA EPPLEY   CLOUDY    81  67  62 S18       29.91F
BLAIR          CLOUDY    78  65  62 SE13G20   29.91F
FREMONT        CLOUDY    80  67  65 SE12G20   29.90F
MILLARD        CLOUDY    80  68  66 SE14G20   29.90F
OFFUTT AFB     CLOUDY    80  68  67 SE12      29.91F
PLATTSMOUTH    CLOUDY    77  65  66 S9        29.92F
WAHOO          FAIR      78  69  72 SE13      29.90S
$$




USA.gov is the U.S. government's official web portal to all federal, state and local government web resources and services.